Weather History for Scappoose, OR

Change the Weather History Date:

Sunday, September 1, 2013

  Actual Average Record
Temperature  
Mean Temperature 70 °F -  
Max Temperature 85 °F - 93 °F (2006)
Min Temperature 55 °F - 0 °F (2006)
Degree Days  
Heating Degree Days 0    
Month to date heating degree days 0  
Since 1 July heating degree days 24  
Cooling Degree Days 5    
Month to date cooling degree days 5  
Year to date cooling degree days 329  
Growing Degree Days 20 (Base 50)    
Moisture  
Dew Point 55 °F    
Average Humidity 63    
Maximum Humidity 93    
Minimum Humidity 32    
Precipitation  
Precipitation 0.00 in - 0.09 in (2000)
Month to date precipitation 0.00  
Year to date precipitation 14.54  
Sea Level Pressure  
Sea Level Pressure 29.85 in    
Wind  
Wind Speed 4 mph (NE)    
Max Wind Speed 12 mph    
Max Gust Speed 18 mph    
Visibility 10 miles    
Events      
T = Trace of Precipitation, MM = Missing Value Source: NWS Daily Summary

Daily Weather History Graph

Daily Weather History Graph

Search for Another Location

Airport:

Trip Planner

Search our weather history database for the weather conditions in past years. The results will help you decide how hot, cold, wet, or windy it might be!

Date:

Astronomy

Sep. 01, 2013 Rise Set
Actual Time 6:32 AM PDT 7:48 PM PDT
Civil Twilight 6:02 AM PDT 8:19 PM PDT
Nautical Twilight 5:25 AM PDT 8:56 PM PDT
Astronomical Twilight 4:45 AM PDT 9:35 PM PDT
Moon 2:52 AM PDT (9/1) 5:35 PM PDT (9/1)
Length of Visible Light 14h 17m
Length of Day
13h 15m
Waning Crescent, 13% of the Moon is Illuminated
Sep 1
Waning Crescent
Sep 5
New
Sep 12
First Quarter
Sep 19
Full
Sep 26
Last Quarter

Hourly Weather History & Observations

Time (PDT) Temp. Heat Index Dew Point Humidity Pressure Visibility Wind Dir Wind Speed Gust Speed Precip Events Conditions
12:53 AM 66.9 °F - 55.0 °F 66% 29.86 in 10.0 mi North 8.1 mph - N/A   Clear
1:53 AM 63.0 °F - 57.0 °F 81% 29.87 in 10.0 mi Calm Calm - N/A   Clear
2:53 AM 61.0 °F - 57.0 °F 87% 29.87 in 10.0 mi Calm Calm - N/A   Clear
3:53 AM 59.0 °F - 55.0 °F 87% 29.88 in 10.0 mi Calm Calm - N/A   Clear
4:53 AM 57.9 °F - 54.0 °F 87% 29.89 in 10.0 mi Calm Calm - N/A   Clear
5:53 AM 57.0 °F - 54.0 °F 89% 29.89 in 10.0 mi Calm Calm - N/A   Clear
6:53 AM 55.9 °F - 53.1 °F 90% 29.90 in 10.0 mi Calm Calm - N/A   Clear
7:53 AM 61.0 °F - 55.9 °F 83% 29.90 in 10.0 mi Calm Calm - N/A   Clear
8:53 AM 64.9 °F - 55.9 °F 73% 29.90 in 10.0 mi Calm Calm - N/A   Clear
9:53 AM 68.0 °F - 57.0 °F 68% 29.89 in 10.0 mi ESE 4.6 mph - N/A   Clear
10:53 AM 70.0 °F - 57.0 °F 63% 29.88 in 10.0 mi ESE 4.6 mph - N/A   Clear
11:53 AM 72.0 °F - 57.9 °F 61% 29.87 in 10.0 mi East 4.6 mph - N/A   Clear
12:53 PM 75.9 °F - 55.9 °F 50% 29.86 in 10.0 mi Variable 3.5 mph - N/A   Clear
1:53 PM 79.0 °F - 55.9 °F 45% 29.84 in 10.0 mi East 6.9 mph - N/A   Clear
2:53 PM 82.0 °F 81.4 °F 55.0 °F 39% 29.82 in 10.0 mi ESE 10.4 mph - N/A   Clear
3:53 PM 82.9 °F - 52.0 °F 34% 29.80 in 10.0 mi SE 5.8 mph - N/A   Clear
4:53 PM 84.0 °F - 52.0 °F 33% 29.79 in 10.0 mi ESE 6.9 mph - N/A   Clear
5:53 PM 81.0 °F 81.0 °F 57.0 °F 44% 29.79 in 10.0 mi NNW 11.5 mph - N/A   Mostly Cloudy
6:53 PM 77.0 °F - 57.0 °F 50% 29.80 in 10.0 mi NNW 8.1 mph - N/A   Partly Cloudy
7:53 PM 73.0 °F - 55.0 °F 53% 29.81 in 10.0 mi NNE 5.8 mph - N/A   Clear
8:53 PM 69.1 °F - 55.0 °F 61% 29.83 in 10.0 mi North 4.6 mph - N/A   Clear
9:53 PM 66.9 °F - 55.0 °F 66% 29.85 in 10.0 mi NNE 5.8 mph - N/A   Clear
10:53 PM 64.9 °F - 54.0 °F 68% 29.86 in 10.0 mi NNW 3.5 mph - N/A   Scattered Clouds
11:53 PM 64.0 °F - 54.0 °F 70% 29.87 in 10.0 mi West 6.9 mph - N/A   Overcast